Lid_Strength_Index
3 3 3 3 3 3 3 3 3 3 3 4 3 3 3 3 3 3 3 3 3 3 3 2 1 1 1 3 3 -0 -1 -1 -0 0 2 2 3 4 5 5 4 5 5 4 4 4 4
3 3 3 3 3 3 3 3 3 3 3 3 3 3 3 3 3 3 3 3 3 3 3 1 1 1 2 5 1 -1 -0 -0 0 1 2 2 3 3 4 5 6 4 4 5 4 5 4
3 3 3 3 3 4 4 4 4 3 3 3 3 3 3 3 3 3 3 4 4 3 2 0 0 0 2 4 -0 -0 -0 0 0 1 2 3 2 3 3 5 4 4 6 5 5 5 5
3 3 3 3 3 4 4 4 3 3 3 3 3 3 3 3 3 4 4 4 4 3 0 1 0 0 3 1 0 0 -0 0 -0 0 1 2 3 2 3 3 5 6 6 9 6 5 5
3 3 3 3 3 3 3 4 3 3 4 4 4 4 4 4 4 4 4 4 3 1 -1 0 1 2 4 2 2 1 -0 1 1 1 1 3 2 3 4 6 7 7 13 9 8 5 6
3 3 3 3 3 3 3 3 3 4 4 4 4 4 4 4 4 5 5 4 0 1 0 -0 1 3 2 4 2 1 -0 1 2 3 4 5 3 5 5 7 15 10 9 8 9 7 6
3 3 3 3 3 3 3 3 3 3 3 4 4 4 4 4 5 5 4 0 2 3 2 3 3 3 3 1 1 2 0 1 2 4 5 4 6 7 6 6 7 7 8 8 7 6 7
3 3 3 3 3 3 3 3 3 3 3 4 4 4 4 4 5 5 4 2 3 2 4 2 2 2 2 1 3 3 0 3 4 5 4 5 7 5 5 5 6 7 7 8 7 6 7
3 3 3 3 3 3 3 3 3 3 3 4 4 4 4 5 5 4 2 2 1 1 4 3 2 3 3 2 3 3 2 3 4 5 5 6 5 4 5 6 7 7 7 8 8 7 6
2 3 3 3 3 3 3 3 3 3 4 4 4 4 5 5 4 3 2 0 1 0 7 5 4 3 2 2 4 2 2 3 4 6 5 5 4 5 6 6 6 8 6 6 7 8 12
2 3 3 3 3 3 3 4 4 4 4 4 4 5 5 6 3 4 2 1 0 1 12 5 4 1 2 4 4 3 2 3 5 5 5 6 6 6 6 6 5 7 5 6 7 7 8
3 3 3 3 3 4 4 4 4 4 4 4 5 5 5 3 2 3 3 2 1 7 11 6 4 5 5 4 4 3 4 2 3 5 5 5 4 5 5 5 5 5 6 6 6 7 10
3 3 3 3 4 4 4 4 4 5 5 5 6 6 5 2 3 2 2 2 8 10 5 7 6 5 5 5 5 5 5 5 6 8 7 6 6 5 4 6 5 5 7 11 11 11 11
3 3 3 4 4 4 4 4 5 5 5 6 7 7 4 2 1 2 2 5 10 7 7 5 6 5 6 5 5 5 6 7 5 6 7 8 9 6 5 5 7 6 7 10 13 12 11
3 3 3 4 4 4 4 5 5 5 6 6 7 1 1 1 1 2 4 8 8 7 6 6 6 7 7 6 6 6 6 6 5 5 7 8 8 5 5 5 5 7 8 6 8 8 10
3 3 3 4 4 4 4 5 5 5 6 6 4 3 1 1 2 4 6 8 6 5 5 5 7 6 8 7 7 6 7 5 6 5 4 6 8 6 5 5 5 6 5 8 8 12 13
3 3 4 4 4 4 4 4 5 5 6 6 3 4 1 0 2 5 7 6 5 4 4 6 6 7 6 7 6 7 7 5 5 5 4 5 6 7 6 7 7 7 7 7 7 8 11
3 3 3 4 4 4 4 4 5 5 6 5 3 6 2 0 5 5 6 5 10 5 4 5 5 6 6 6 7 7 7 5 4 4 6 5 6 8 7 5 5 5 7 7 9 9 8
3 3 4 4 4 3 3 3 4 5 5 4 4 4 1 1 7 6 5 5 5 6 5 5 5 5 5 6 7 6 6 4 4 5 5 5 7 9 8 7 6 7 6 6 7 7 9
4 4 3 3 2 2 2 2 3 3 4 3 3 5 3 3 3 5 6 7 7 4 5 4 5 4 5 6 5 6 6 5 4 4 3 4 6 7 9 8 7 7 7 6 7 9 9
3 3 2 2 2 1 1 1 2 3 3 2 3 4 4 6 5 5 5 6 7 7 5 4 5 5 6 7 6 6 5 5 4 6 4 5 7 7 6 6 7 7 7 7 7 7 8
2 2 2 1 1 1 0 1 1 2 3 1 4 5 4 5 4 5 6 6 6 6 6 6 6 5 5 6 6 7 6 5 6 5 5 5 7 6 7 7 7 7 7 7 7 7 7
2 2 1 1 1 1 1 1 1 2 3 2 1 1 3 5 5 5 6 5 6 6 5 5 5 6 6 6 5 5 4 4 5 5 6 6 7 7 9 7 7 9 7 7 6 6 6
2 1 1 1 1 1 1 1 1 2 3 2 2 3 5 7 5 5 5 5 6 5 6 5 5 6 4 2 3 3 4 4 4 5 4 6 6 7 9 7 11 7 5 5 6 5 5
2 2 1 1 1 1 1 1 2 2 2 2 2 3 4 7 5 5 5 5 5 4 5 5 4 4 2 4 6 7 7 7 6 5 5 5 6 8 9 9 8 7 6 6 6 6 5
2 1 1 1 1 1 1 2 2 2 2 3 3 2 4 6 6 5 6 5 6 6 5 4 3 2 4 5 7 10 10 8 9 7 5 5 5 7 8 10 12 7 5 4 4 8 5
1 1 1 1 1 1 2 2 2 2 3 3 3 2 5 8 5 5 6 6 4 5 6 5 5 5 3 7 8 9 9 6 9 9 8 8 7 9 9 10 8 6 5 4 9 8 5
1 1 2 2 2 3 3 2 2 2 2 2 3 2 4 6 5 5 5 6 5 5 7 5 6 5 6 8 8 8 8 7 7 7 8 9 9 9 8 10 12 4 5 7 6 5 5
2 2 2 3 3 2 2 2 2 1 0 1 3 1 0 5 5 4 4 3 4 4 5 4 5 5 5 7 7 7 9 7 7 9 5 9 7 8 7 7 5 4 5 4 4 4 4